Flag Weather past 2 weeks in Labrador City, Newfoundland and Labrador, Canada

Now
16 °F

Light snow. Overcast.


Feels Like: 3 °F
Forecast: 7 / 14 °F
Wind: 10 mph from Northwest

Location: Wabush Lake

Current Time: Nov 26, 2014 at 1:54:29 AM

Latest Report: Nov 26, 2014 at 1:00 AM


Visibility: 9 mi

Pressure: 29.61 "Hg

Humidity: 79%

Dew point: 10 °F

Location of Labrador CityLocation

Historic Weather in Labrador City — Graph

°F

Labrador City temperature yesterday

Maximum temperature yesterday: 39 °F (at 6:00 AM)
Minimum temperature yesterday: 16 °F (at 8:00 PM)
Average temperature yesterday: 29 °F

Past Weeks' High & Low Weather Summary

 TemperatureHumidityPressure
High39 °F (Nov 25, 6:00 AM)100% (Nov 12, 12:56 AM)30.36 "Hg (Nov 12, 12:56 AM)
Low-15 °F (Nov 21, 3:55 AM)62% (Nov 11, 12:00 PM)28.77 "Hg (Nov 18, 8:00 PM)
Average12 °F84%29.70 "Hg
* Reported Nov 11 1:00 AM — Nov 26 1:00 AM, Labrador City, Weather by CustomWeather, © 2014

Note: Actual official high and low records may vary slightly from our data, if they occured in-between our weather recording intervals... More about our weather records

Advertising

Labrador City weather history for previous 24 hours

 ConditionsComfort  
Time TempWeatherWind HumidityBarometerVisibility
1:00 AM
Nov 26
16 °FLight snow. Overcast.10 mph79%29.61 "Hg9 mi
12:00 AM16 °FLight snow. Mostly cloudy.8 mph79%29.57 "Hg9 mi
11:00 PM
Nov 25
16 °FLight snow. Mostly cloudy.10 mph79%29.54 "Hg9 mi
10:02 PM16 °FLight snow. Mostly cloudy.7 mph79%29.53 "Hg9 mi
9:00 PM16 °FSnow flurries. Overcast.10 mph79%29.51 "Hg6 mi
8:00 PM16 °FSnow flurries. Overcast.12 mph79%29.48 "Hg10 mi
7:00 PM18 °FSnow flurries. Overcast.14 mph79%29.45 "Hg6 mi
6:00 PM18 °FSnow flurries. Overcast.17 mph86%29.42 "Hg10 mi
5:00 PM19 °FSnow flurries. Overcast.18 mph79%29.38 "Hg10 mi
4:00 PM21 °FSnow flurries. Overcast.15 mph80%29.33 "Hg12 mi
3:00 PM23 °FSnow flurries. Overcast.18 mph80%29.26 "Hg10 mi
2:00 PM27 °FSnow flurries. Overcast.18 mph80%29.21 "Hg10 mi
1:00 PM30 °FSnow flurries. Cloudy.17 mph80%29.12 "Hg8 mi
12:50 PM30 °FSnow flurries. More clouds than sun.16 mph86%29.10 "Hg3 mi
12:00 PM34 °FSnow flurries. Mostly cloudy.25 mph75%29.05 "Hg10 mi
11:00 AM36 °FLight rain. Partly sunny.23 mph81%29.01 "Hg10 mi
10:00 AM37 °FDrizzle. Mostly cloudy.29 mph81%28.97 "Hg10 mi
9:00 AM39 °FDrizzle. Mostly cloudy.23 mph87%28.93 "Hg10 mi
8:00 AM39 °FDrizzle. Mostly cloudy.15 mph93%28.91 "Hg8 mi
7:00 AM39 °FDrizzle. Fog.16 mph93%28.90 "Hg5 mi
6:00 AM39 °FDrizzle. Mostly cloudy.16 mph93%28.92 "Hg10 mi
5:02 AM37 °FLight rain. Overcast.13 mph100%28.94 "Hg9 mi
4:00 AM37 °FOvercast.12 mph93%28.97 "Hg9 mi
3:00 AM37 °FLight freezing rain. Overcast.14 mph93%29.01 "Hg9 mi
2:01 AM36 °FLight freezing rain. Mostly cloudy.14 mph93%29.05 "Hg9 mi
1:00 AM36 °FLight freezing rain. Mostly cloudy.15 mph93%29.08 "Hg9 mi
Weather by CustomWeather, © 2014

See weather overviewHow to use our weather pages